Temperature
16 16 16 16 16 16 16 16 17 17 17 17 17 17 17 17 17 17 17 17 17 17 17 17 17 17 18 18 18 18 18 18 18 18 18 18 18 18 18 18 18 18 18
16 16 16 16 16 16 16 16 17 17 17 17 17 17 17 17 17 17 17 17 17 17 17 17 17 17 17 17 18 18 18 18 18 18 18 18 18 18 18 18 18 18 18
16 16 16 16 16 16 16 16 16 16 16 17 17 17 17 17 17 17 17 17 17 17 17 17 17 17 17 17 17 18 18 17 18 18 18 18 18 18 18 18 18 18 18
17 17 16 16 16 16 16 16 16 16 16 16 16 17 17 17 17 17 17 17 17 17 17 17 17 17 17 17 17 17 17 17 17 17 18 18 18 18 18 18 18 18 18
17 17 17 16 16 16 16 16 16 16 16 16 16 16 16 17 17 17 17 17 17 17 17 17 17 17 17 17 17 17 17 17 17 17 17 17 17 17 17 18 17 17 17
17 17 17 16 16 16 16 16 16 16 16 16 16 16 16 16 16 16 16 16 16 16 16 17 17 17 17 17 17 17 17 17 17 17 17 17 17 17 17 17 17 17 17
17 17 17 16 16 16 16 16 16 16 16 16 16 16 16 16 16 16 16 16 16 16 16 16 17 17 17 17 17 17 17 17 17 17 17 17 17 17 17 17 17 17 17
17 17 16 16 16 16 16 16 16 16 16 16 16 16 16 16 16 16 16 16 16 16 16 16 16 16 16 16 17 17 17 17 17 17 17 17 17 17 17 17 17 17 17
17 17 16 16 16 16 16 16 16 16 16 16 16 16 16 16 16 16 16 16 16 16 16 16 16 16 16 16 16 16 16 17 17 17 17 17 17 17 17 17 17 17 17
17 16 16 16 16 16 16 16 16 16 16 16 16 16 16 16 16 16 16 16 16 16 16 16 16 16 16 16 16 16 16 16 16 16 16 16 16 16 16 16 16 16 16
17 17 16 16 16 16 16 16 16 16 16 16 16 16 16 16 16 16 16 16 16 16 16 16 16 16 16 16 16 16 16 16 16 16 16 16 16 16 16 16 16 16 16
17 17 17 16 16 16 16 16 16 16 16 16 16 16 16 16 16 16 16 16 16 16 16 16 16 16 16 16 16 16 16 16 16 16 16 16 16 16 16 16 16 16 16
17 17 17 16 16 16 16 16 16 16 16 16 16 16 16 16 16 16 16 16 16 15 15 15 16 16 16 16 16 16 16 16 15 15 15 15 15 15 15 15 15 16 16
17 17 17 16 16 16 16 16 16 16 16 16 16 16 16 16 16 15 15 15 15 15 15 15 15 15 15 15 15 15 15 15 15 15 15 15 15 15 15 15 15 15 15
17 17 16 16 16 16 16 16 16 16 16 16 16 16 16 16 16 15 15 15 15 15 15 15 15 15 15 15 15 15 15 15 15 15 15 15 14 15 15 15 15 15 15
17 17 16 16 16 16 16 16 16 16 16 16 16 16 16 16 16 15 15 15 15 15 15 15 15 15 15 15 15 15 14 14 14 14 14 14 14 14 14 14 15 15 15
17 17 16 16 16 16 16 16 16 16 16 16 16 16 16 16 16 15 15 15 15 15 15 15 15 15 15 15 15 14 14 14 14 14 14 14 14 14 14 14 14 14 14
17 17 16 16 16 16 16 16 16 16 16 16 16 16 16 15 15 15 15 15 15 15 15 15 15 15 15 15 14 14 14 14 14 14 14 14 14 14 14 14 14 14 14
17 17 17 16 16 16 16 16 16 16 16 16 16 16 16 16 15 15 15 15 15 15 15 15 15 15 15 14 14 14 14 14 14 14 14 14 14 14 14 14 14 14 14
17 17 17 16 16 16 16 16 16 16 16 16 16 15 15 15 15 15 15 15 15 15 15 15 15 15 14 14 14 14 14 14 14 14 14 14 14 14 14 14 14 14 13
17 17 17 16 16 16 16 16 16 16 16 16 15 15 15 15 15 15 15 15 15 15 15 15 15 14 14 14 14 14 14 14 14 13 13 13 13 13 13 13 13 13 13
17 17 17 16 16 16 16 16 16 16 16 15 15 15 15 15 15 15 15 15 15 15 15 15 15 14 14 14 14 14 14 13 13 13 13 13 13 13 13 13 13 13 13
17 17 17 16 16 16 16 16 16 15 15 15 15 15 15 15 15 15 15 15 15 15 15 15 15 14 14 14 14 14 14 13 13 13 13 13 13 13 13 13 13 13 13
17 17 17 16 16 16 16 16 15 15 15 15 15 15 15 15 15 15 15 15 15 15 15 15 14 14 14 14 14 14 14 14 13 13 13 13 13 13 13 13 13 13 13
17 17 17 16 16 16 16 16 15 15 15 15 15 15 15 15 15 15 15 15 15 15 15 15 14 14 14 14 14 14 14 14 13 13 12 13 12 12 13 13 13 13 13
17 17 16 16 16 16 16 16 15 15 15 15 15 15 15 15 15 15 15 15 15 15 14 14 14 14 14 14 14 14 14 14 14 13 13 13 12 12 12 12 12 12 12
Wind_Speed
3 4 2 3 4 6 6 7 7 8 8 8 9 9 8 8 8 8 9 9 9 9 10 10 10 10 9 9 9 9 9 9 10 9 9 9 9 8 8 9 8 6 7
2 3 1 3 5 5 6 7 7 8 8 8 8 9 9 9 8 8 9 10 10 10 10 10 10 9 9 9 9 10 10 10 10 10 10 9 8 8 9 8 8 6 7
1 1 1 4 5 5 6 6 7 7 8 8 8 9 9 9 9 10 10 10 10 10 9 10 10 9 9 9 10 10 11 11 10 10 10 8 8 8 8 8 7 7 7
1 0 1 3 5 5 6 6 7 8 8 8 8 8 9 9 9 10 10 10 10 10 10 10 10 10 10 10 10 10 11 11 11 10 8 8 7 8 8 8 7 7 7
1 1 2 4 4 5 5 6 6 7 8 8 8 8 8 8 9 9 10 10 10 10 10 10 10 10 10 10 10 10 10 11 11 10 9 8 7 7 7 7 7 7 7
2 2 2 4 4 5 5 5 6 7 7 8 8 8 7 7 8 9 9 9 9 10 10 10 10 9 9 9 10 10 10 11 11 10 9 8 7 8 7 8 8 8 7
1 2 2 4 4 5 5 6 6 7 7 7 7 8 7 8 8 9 9 9 9 9 9 10 10 11 11 10 10 10 11 11 10 9 8 8 8 8 8 8 8 8 8
1 2 3 3 4 4 5 5 6 6 6 7 7 8 8 8 8 8 8 9 9 9 9 10 10 11 12 12 11 12 12 10 9 8 8 7 8 9 9 9 8 8 8
2 3 3 3 4 4 4 4 5 5 6 7 7 7 8 8 7 7 8 8 9 9 10 10 11 12 13 13 13 13 13 12 10 8 7 7 8 9 9 9 8 8 7
2 2 2 3 3 4 4 4 4 5 5 6 7 8 8 9 8 8 8 8 9 9 10 11 12 13 13 14 14 14 13 12 10 9 8 7 8 8 9 9 8 8 7
1 2 2 2 3 3 4 3 5 5 5 6 6 7 8 8 8 8 9 9 9 10 10 11 12 12 13 14 14 13 12 10 10 8 7 7 8 9 9 8 8 7 7
1 1 1 1 2 2 3 4 5 5 6 5 5 6 6 7 7 8 9 9 10 10 11 12 12 12 12 11 11 12 10 10 9 7 7 8 8 9 9 8 8 8 8
1 1 1 0 1 2 2 3 3 4 5 5 5 5 5 6 7 8 8 8 9 10 10 11 11 10 10 9 9 9 10 9 8 7 8 9 9 8 8 8 8 8 8
0 1 0 0 1 1 1 2 2 3 3 3 3 4 5 4 4 5 5 7 8 7 8 8 8 9 10 10 9 9 9 8 8 8 9 10 9 9 9 9 8 8 8
1 0 0 1 1 1 2 1 2 2 2 2 3 4 5 3 3 4 4 6 7 7 7 6 7 7 8 8 9 8 8 8 8 8 8 10 10 9 9 9 8 8 8
2 1 1 2 2 2 2 2 2 2 3 4 4 3 4 4 4 4 4 5 5 6 7 7 6 6 6 6 7 8 7 8 8 8 8 9 10 10 10 10 9 9 9
2 2 2 2 3 3 2 2 3 3 4 4 3 3 4 4 5 5 4 3 4 6 7 7 7 7 5 6 6 7 7 7 8 9 9 9 9 11 11 10 11 10 11
3 2 1 2 3 2 2 3 3 4 4 3 3 4 4 4 6 6 4 3 5 6 6 5 4 5 5 5 4 5 6 7 8 9 9 10 10 9 11 12 11 11 12
3 3 2 2 3 3 3 3 4 4 4 3 4 4 4 4 5 6 4 4 6 5 4 4 4 3 4 4 4 5 5 6 6 8 9 10 11 11 10 11 12 13 12
3 3 3 2 3 3 3 3 3 3 3 4 3 2 3 4 5 6 5 5 6 4 3 3 4 4 3 3 5 5 5 5 6 7 7 9 10 11 11 11 11 11 13
2 3 2 2 2 3 2 2 2 1 1 2 2 2 2 3 4 5 4 4 4 3 3 4 4 4 3 2 3 4 4 5 6 6 6 7 8 10 11 11 11 11 10
2 2 2 2 2 2 2 1 1 1 1 1 2 3 3 3 3 4 4 3 4 3 4 3 3 2 2 2 2 3 2 4 4 5 5 5 6 7 8 9 10 10 10
2 3 3 3 2 2 2 2 2 3 2 2 2 2 2 1 2 3 4 4 4 4 4 3 4 4 2 1 2 3 3 1 1 3 4 4 5 4 5 7 8 8 8
3 2 3 2 2 2 2 3 3 1 0 1 1 1 2 2 2 2 3 4 3 3 3 3 3 3 3 2 1 1 2 3 2 1 3 3 4 4 4 5 6 7 7
3 3 3 3 2 2 2 2 2 1 0 0 1 1 2 2 2 1 2 3 3 2 3 3 3 3 3 3 2 2 2 2 2 2 0 2 3 3 3 3 4 5 6
2 3 3 3 2 1 2 2 2 2 1 1 1 1 1 2 2 2 2 2 2 2 2 3 3 3 2 2 2 2 3 2 2 3 2 1 1 2 3 3 3 4 4
Wind_Direction
285 292 329 51 54 59 61 62 63 62 63 67 70 73 75 80 87 88 90 92 93 93 94 93 91 89 86 83 84 87 87 90 88 86 92 94 94 95 97 97 93 93 103
249 298 26 79 73 69 65 64 67 66 66 69 71 73 72 78 82 88 89 88 88 89 90 89 89 89 87 85 85 85 85 92 92 88 85 81 85 91 94 93 94 95 100
239 317 61 89 85 79 74 70 70 71 69 70 72 72 72 72 77 81 86 86 84 84 84 86 86 86 85 84 83 83 84 83 89 86 82 72 75 87 93 94 94 97 99
165 46 71 88 84 81 78 74 74 70 68 69 70 70 70 70 76 81 81 83 81 79 80 82 83 82 82 84 81 83 84 81 81 79 72 68 71 86 93 95 94 95 95
90 57 55 83 85 83 80 75 75 71 71 69 68 71 72 73 76 79 82 82 80 77 78 80 80 80 80 80 81 83 83 81 76 70 67 65 68 83 90 93 94 90 88
64 49 71 90 89 85 81 78 76 73 70 66 66 69 72 75 81 82 82 82 82 80 77 76 77 79 79 80 84 85 84 78 70 66 65 65 69 78 83 85 88 87 84
77 38 76 90 90 89 80 78 78 72 66 64 67 69 73 78 78 80 81 82 82 79 78 76 76 77 77 77 81 84 86 81 71 64 60 59 67 73 76 80 81 78 79
80 43 61 78 77 81 79 77 78 73 68 65 64 67 70 74 76 76 78 78 78 79 79 76 76 75 73 74 79 82 82 78 72 64 57 57 67 70 69 71 72 74 76
62 54 34 32 42 55 63 67 71 67 67 65 61 60 63 64 70 73 74 76 79 77 76 74 75 74 72 73 77 78 76 74 68 60 58 57 67 66 65 64 66 65 63
41 38 20 20 27 28 27 43 53 57 59 59 59 57 56 55 59 63 64 69 77 76 73 74 77 77 75 73 74 74 70 64 60 56 52 58 64 64 64 64 61 60 56
10 1 4 6 10 14 6 23 37 42 44 46 52 53 51 47 48 52 58 63 70 73 74 76 77 76 73 69 69 68 62 55 54 50 49 58 61 62 63 62 60 59 57
276 288 287 337 355 11 11 23 25 29 37 47 55 53 53 52 52 56 53 59 67 71 74 74 75 72 69 63 61 61 57 52 49 45 47 56 58 60 61 58 57 58 58
245 273 256 275 350 17 12 23 32 37 45 55 66 63 60 57 54 53 52 51 57 65 67 67 67 63 64 64 61 57 53 51 46 41 44 52 57 57 56 53 54 54 55
124 264 289 113 65 40 41 41 49 53 55 56 66 81 82 68 59 60 58 56 59 66 71 69 70 68 65 65 64 59 51 47 42 38 40 48 53 56 56 53 53 54 56
135 125 133 98 103 98 78 50 64 64 73 78 79 85 100 93 79 73 66 66 66 74 78 76 75 72 65 60 61 60 53 46 41 38 31 37 43 50 54 53 53 54 56
138 124 95 105 117 107 97 92 71 69 78 83 78 92 113 111 105 94 81 73 70 76 83 83 81 77 70 68 60 58 55 48 42 37 32 30 37 45 50 52 54 57 59
152 120 104 115 101 100 96 92 83 73 75 79 79 84 104 115 115 110 99 84 81 87 90 86 80 77 71 67 57 53 52 47 44 40 37 37 36 41 47 51 53 58 62
137 124 118 113 108 103 86 77 75 76 77 74 81 79 86 111 120 113 107 97 98 97 94 90 78 74 65 61 55 44 46 44 42 44 45 44 43 41 41 47 51 57 61
151 139 119 100 101 101 89 75 69 69 63 60 73 79 91 109 121 119 114 110 107 100 93 97 80 87 80 70 66 52 42 40 38 45 46 45 44 44 44 44 49 52 58
130 120 118 102 91 88 74 64 53 49 39 39 50 72 98 113 123 124 118 119 117 106 90 90 91 75 80 78 75 60 44 39 42 41 40 43 43 46 49 50 49 48 52
103 111 123 126 109 97 85 80 71 42 13 13 27 65 89 106 124 128 125 125 125 121 124 121 108 91 72 79 78 52 33 38 43 37 37 43 41 45 50 51 52 52 47
144 141 145 149 141 137 126 129 123 110 39 1 12 50 70 97 125 138 137 142 139 128 126 127 124 112 83 66 99 89 34 13 16 26 28 38 35 44 47 49 52 51 49
167 172 172 162 149 129 110 87 65 48 30 19 14 12 18 77 115 128 143 145 149 152 158 158 150 140 142 62 77 124 128 188 339 355 16 30 30 37 36 44 48 48 48
197 172 150 136 128 115 123 120 116 118 138 267 293 326 360 41 91 130 146 147 151 159 164 175 165 152 146 153 87 70 127 149 144 360 348 5 23 33 27 38 40 42 47
166 152 141 128 113 99 109 128 125 104 135 344 11 23 10 9 40 79 141 141 149 158 169 169 159 163 160 163 162 145 101 83 105 143 231 337 3 8 21 28 36 39 44
137 136 133 129 121 108 111 114 133 137 123 87 38 29 8 358 5 29 105 132 147 158 168 174 169 164 167 161 165 159 156 152 164 150 169 210 346 339 9 23 29 31 41
Height
1531 1530 1529 1529 1529 1528 1528 1527 1527 1527 1526 1526 1525 1525 1525 1525 1525 1525 1524 1525 1525 1525 1526 1526 1527 1527 1528 1528 1529 1529 1529 1529 1529 1530 1530 1531 1532 1532 1533 1533 1534 1535 1536
1531 1530 1530 1530 1529 1529 1529 1528 1528 1527 1527 1527 1527 1526 1526 1525 1526 1526 1525 1525 1526 1526 1527 1528 1528 1529 1529 1529 1530 1530 1530 1530 1531 1531 1531 1532 1533 1533 1534 1535 1535 1536 1536
1532 1531 1531 1531 1530 1530 1530 1529 1529 1529 1528 1528 1528 1528 1528 1527 1527 1527 1526 1527 1527 1527 1528 1528 1529 1530 1530 1531 1531 1531 1532 1532 1532 1533 1533 1533 1534 1534 1535 1535 1536 1536 1537
1533 1533 1532 1532 1531 1531 1531 1530 1530 1530 1530 1529 1529 1529 1529 1529 1529 1529 1528 1528 1528 1529 1529 1530 1530 1531 1531 1531 1532 1533 1533 1533 1534 1534 1534 1535 1535 1535 1536 1536 1537 1537 1538
1534 1534 1533 1533 1533 1532 1532 1532 1531 1531 1531 1531 1530 1530 1530 1530 1530 1530 1530 1530 1530 1530 1531 1531 1532 1532 1532 1533 1533 1534 1534 1535 1535 1535 1535 1536 1536 1537 1537 1538 1538 1538 1539
1535 1535 1535 1534 1534 1534 1533 1533 1533 1532 1532 1532 1532 1532 1532 1532 1532 1532 1532 1532 1532 1532 1532 1533 1533 1533 1534 1534 1534 1535 1535 1536 1536 1536 1537 1537 1537 1538 1538 1539 1539 1539 1540
1537 1537 1536 1536 1535 1535 1535 1535 1534 1534 1534 1534 1534 1533 1533 1533 1533 1534 1534 1534 1534 1534 1534 1535 1535 1535 1535 1535 1535 1536 1536 1537 1537 1538 1538 1538 1539 1539 1539 1540 1540 1540 1540
1539 1539 1538 1538 1537 1537 1537 1536 1536 1536 1536 1536 1535 1535 1535 1535 1535 1535 1535 1536 1536 1536 1536 1537 1537 1536 1536 1536 1536 1537 1537 1538 1538 1539 1539 1539 1540 1540 1540 1540 1540 1541 1541
1540 1540 1540 1540 1539 1539 1539 1538 1538 1538 1538 1537 1537 1537 1537 1537 1537 1537 1537 1537 1538 1538 1538 1538 1538 1538 1538 1538 1538 1538 1539 1539 1540 1540 1540 1541 1541 1541 1541 1541 1541 1541 1541
1542 1542 1542 1542 1541 1541 1541 1541 1540 1540 1540 1539 1539 1539 1539 1539 1538 1538 1539 1539 1539 1539 1540 1540 1540 1540 1540 1540 1540 1540 1541 1541 1541 1541 1542 1542 1542 1542 1542 1542 1541 1541 1541
1543 1544 1544 1543 1543 1543 1543 1543 1542 1542 1542 1541 1541 1541 1541 1540 1540 1540 1540 1540 1541 1541 1541 1541 1541 1541 1541 1542 1542 1542 1542 1542 1543 1543 1543 1543 1543 1543 1543 1542 1542 1542 1542
1545 1545 1545 1545 1545 1545 1545 1544 1544 1544 1544 1543 1543 1543 1543 1542 1542 1542 1542 1542 1542 1542 1542 1543 1543 1543 1543 1543 1543 1543 1543 1544 1544 1544 1544 1544 1544 1544 1543 1543 1543 1542 1542
1546 1546 1546 1546 1546 1546 1546 1546 1546 1546 1546 1545 1545 1545 1545 1544 1544 1544 1544 1544 1544 1544 1544 1544 1544 1544 1545 1545 1545 1545 1545 1545 1545 1545 1545 1545 1544 1544 1544 1544 1543 1543 1542
1547 1548 1548 1548 1548 1548 1547 1547 1547 1547 1547 1547 1547 1547 1546 1546 1546 1546 1546 1546 1546 1546 1546 1546 1546 1546 1546 1546 1546 1546 1546 1545 1545 1545 1545 1546 1545 1545 1544 1544 1543 1543 1543
1548 1549 1549 1549 1549 1549 1549 1549 1549 1549 1549 1549 1549 1548 1548 1548 1548 1548 1548 1548 1548 1548 1548 1548 1548 1548 1548 1547 1547 1547 1547 1547 1547 1546 1546 1546 1546 1545 1545 1544 1544 1544 1543
1549 1550 1550 1550 1550 1550 1550 1550 1550 1550 1550 1550 1550 1550 1550 1550 1550 1550 1550 1550 1550 1550 1550 1550 1549 1549 1549 1549 1549 1548 1548 1548 1548 1547 1547 1547 1546 1546 1546 1545 1545 1544 1543
1550 1551 1551 1551 1551 1551 1551 1551 1551 1551 1552 1552 1551 1551 1551 1551 1551 1551 1551 1551 1551 1551 1551 1551 1551 1551 1551 1550 1550 1550 1549 1549 1549 1548 1548 1548 1547 1547 1546 1546 1546 1545 1544
1551 1551 1552 1552 1552 1552 1552 1552 1552 1552 1552 1553 1553 1553 1553 1553 1553 1553 1553 1553 1553 1553 1553 1553 1552 1552 1552 1552 1552 1551 1551 1551 1550 1550 1549 1549 1548 1548 1547 1547 1546 1546 1545
1552 1552 1552 1553 1553 1553 1553 1553 1553 1553 1553 1553 1553 1553 1554 1554 1554 1554 1554 1554 1554 1554 1554 1554 1554 1554 1554 1554 1553 1553 1553 1552 1552 1551 1551 1550 1550 1549 1548 1548 1547 1547 1547
1552 1553 1553 1553 1554 1554 1554 1554 1554 1554 1554 1554 1554 1554 1554 1554 1554 1554 1554 1555 1555 1555 1555 1555 1555 1555 1555 1555 1555 1555 1554 1554 1554 1553 1552 1552 1551 1550 1550 1549 1549 1548 1548
1552 1553 1553 1553 1554 1554 1554 1554 1554 1554 1554 1554 1554 1554 1554 1555 1555 1555 1555 1555 1556 1556 1556 1557 1557 1557 1556 1556 1556 1556 1556 1556 1555 1555 1554 1554 1552 1552 1551 1551 1550 1550 1549
1552 1552 1553 1553 1554 1554 1554 1554 1555 1555 1554 1555 1555 1555 1554 1555 1555 1555 1555 1556 1556 1556 1557 1557 1557 1557 1557 1557 1557 1557 1557 1558 1557 1556 1556 1555 1554 1554 1553 1553 1552 1551 1551
1551 1552 1553 1553 1554 1554 1554 1554 1554 1555 1554 1555 1554 1554 1554 1554 1555 1555 1556 1556 1556 1557 1557 1557 1558 1558 1558 1558 1558 1559 1558 1558 1558 1558 1557 1556 1556 1555 1555 1554 1554 1553 1552
1550 1552 1553 1553 1554 1554 1554 1554 1554 1554 1554 1554 1554 1554 1554 1555 1555 1555 1555 1556 1556 1557 1557 1557 1558 1558 1558 1558 1558 1558 1559 1559 1559 1558 1558 1557 1557 1556 1556 1555 1555 1554 1554
1550 1551 1552 1553 1553 1554 1554 1554 1554 1554 1554 1554 1554 1554 1554 1555 1555 1555 1555 1556 1556 1556 1557 1557 1557 1558 1558 1558 1558 1558 1558 1558 1558 1558 1558 1558 1557 1557 1556 1556 1556 1555 1555
1549 1550 1551 1552 1552 1553 1553 1553 1553 1553 1553 1553 1553 1553 1554 1554 1554 1555 1555 1555 1556 1556 1556 1557 1557 1557 1557 1557 1558 1558 1558 1558 1558 1557 1557 1557 1557 1557 1557 1556 1556 1556 1555